Terminal Aerodrome Forecast
Issued by NWS Corpus Christi, TX

Home | Current Version | Previous Version | Text Only | Print | Product List | Glossary On
Versions: 1 2 3 4 5 6 7 8 9 10 11 12 13 14 15
000
FTUS44 KCRP 281100
TAFCRP
TAF
KCRP 281133Z 2812/2912 16006KT P6SM FEW015
      TEMPO 2812/2813 6SM BR FEW014
     FM281400 18012KT P6SM SCT025
     FM281800 14017G24KT P6SM FEW040
     FM290200 VRB06KT P6SM FEW015=

USA.gov is the U.S. government's official web portal to all federal, state and local government web resources and services.